TimeCDT,TemperatureF,Dew PointF,Humidity,Sea Level PressureIn,VisibilityMPH,Wind Direction,Wind SpeedMPH,Gust SpeedMPH,PrecipitationIn,Events,Conditions,WindDirDegrees,DateUTC
12:52 AM,72.0,66.9,84,29.97,-9999.0,SSW,6.9,-,N/A,,Unknown,210,2013-09-04 05:52:00
1:52 AM,72.0,66.0,81,29.97,-9999.0,SE,8.1,-,0.07,,Unknown,140,2013-09-04 06:52:00
2:52 AM,72.0,64.9,78,29.97,-9999.0,SSW,8.1,-,N/A,,Unknown,210,2013-09-04 07:52:00
3:52 AM,72.0,64.0,76,29.98,-9999.0,SSW,6.9,-,N/A,,Unknown,210,2013-09-04 08:52:00
4:52 AM,71.1,64.0,78,29.98,-9999.0,SW,4.6,-,N/A,,Unknown,220,2013-09-04 09:52:00
5:52 AM,70.0,63.0,78,29.97,-9999.0,South,5.8,-,N/A,,Unknown,190,2013-09-04 10:52:00
6:52 AM,69.1,63.0,81,29.99,-9999.0,Calm,Calm,-,N/A,,Unknown,0,2013-09-04 11:52:00
7:52 AM,68.0,64.0,87,30.01,-9999.0,SSE,5.8,-,N/A,,Unknown,150,2013-09-04 12:52:00
8:52 AM,73.0,64.9,76,30.02,-9999.0,SE,6.9,-,N/A,,Unknown,140,2013-09-04 13:52:00
9:52 AM,77.0,64.9,66,30.03,-9999.0,SE,6.9,-,0.01,,Unknown,140,2013-09-04 14:52:00
10:52 AM,82.0,64.0,54,30.04,-9999.0,South,6.9,-,N/A,,Unknown,180,2013-09-04 15:52:00
11:52 AM,84.0,64.0,51,30.04,-9999.0,SSW,6.9,-,N/A,,Unknown,210,2013-09-04 16:52:00
12:52 PM,86.0,63.0,46,30.02,-9999.0,SSW,5.8,-,N/A,,Unknown,210,2013-09-04 17:52:00
1:52 PM,90.0,64.0,42,30.01,-9999.0,South,8.1,-,0.01,,Unknown,180,2013-09-04 18:52:00
2:52 PM,86.0,64.0,48,30.01,-9999.0,SSE,5.8,-,N/A,,Unknown,160,2013-09-04 19:52:00
3:52 PM,91.9,66.0,42,29.99,-9999.0,SSE,10.4,-,N/A,,Unknown,150,2013-09-04 20:52:00
4:52 PM,91.0,62.1,38,29.98,-9999.0,South,9.2,-,N/A,,Unknown,180,2013-09-04 21:52:00
5:52 PM,91.0,64.0,41,29.97,-9999.0,SSE,9.2,-,N/A,,Unknown,160,2013-09-04 22:52:00
6:52 PM,89.1,64.0,43,29.98,-9999.0,South,6.9,-,N/A,,Unknown,170,2013-09-04 23:52:00
7:52 PM,82.9,68.0,60,29.99,-9999.0,SE,9.2,-,N/A,,Unknown,140,2013-09-05 00:52:00
8:52 PM,80.1,66.0,62,30.01,-9999.0,SSE,11.5,-,N/A,,Unknown,150,2013-09-05 01:52:00
9:52 PM,77.0,64.9,66,30.03,-9999.0,South,13.8,-,N/A,,Unknown,170,2013-09-05 02:52:00
10:52 PM,73.9,64.9,73,30.04,-9999.0,South,10.4,-,N/A,,Unknown,170,2013-09-05 03:52:00
11:52 PM,73.0,64.0,73,30.04,-9999.0,SSE,9.2,-,N/A,,Unknown,160,2013-09-05 04:52:00